CAPE
22 34 31 11 10 5 0 2 0 1 20 2 1 0 0 0 0 0 0 0 0 0 0 0 0 0 0 0 0 0 1 11 0 0 0 0 0 10 5 7 2 11 1 0
20 18 25 16 31 1 0 0 1 0 8 0 3 0 0 0 0 0 0 0 0 0 0 0 0 0 0 0 0 2 7 6 0 3 3 0 0 0 3 3 0 0 3 1
13 14 15 23 25 1 0 0 1 0 1 2 1 3 0 0 0 0 0 0 0 0 0 0 0 0 0 0 0 0 3 5 0 3 1 2 2 2 2 0 1 0 2 1
2 5 9 16 28 3 0 0 0 0 0 2 2 0 0 0 0 0 0 0 0 0 0 0 0 0 0 0 0 0 4 0 5 4 1 0 3 0 4 1 1 1 2 3
2 1 7 14 17 2 1 0 0 0 0 0 7 0 1 0 0 0 0 0 0 0 0 0 0 0 0 0 0 0 3 2 0 1 4 1 0 0 1 4 3 3 2 3
0 2 3 25 2 14 4 0 0 0 0 0 7 1 0 0 0 0 0 0 0 0 0 0 0 0 0 0 0 0 3 1 1 6 1 6 0 0 0 3 1 2 0 3
7 2 10 7 13 14 0 0 0 0 2 3 1 0 0 0 0 0 0 0 0 0 0 0 0 0 0 0 0 0 2 2 0 6 2 0 0 1 0 0 0 1 1 1
3 2 4 14 2 0 0 0 0 0 2 0 0 0 0 0 0 0 0 0 0 0 0 0 0 1 0 0 0 0 0 0 3 1 10 1 3 1 3 2 1 1 1 2
11 6 1 0 0 0 0 0 0 0 0 2 0 0 0 0 0 0 0 0 0 0 0 0 0 0 0 7 10 3 0 4 5 5 2 1 2 2 3 2 2 2 1 2
7 15 5 0 0 0 0 0 0 0 0 0 0 0 0 0 0 0 0 0 0 0 0 0 0 1 0 3 9 2 8 2 3 5 4 1 2 2 0 0 1 1 1 0
16 14 2 0 0 0 0 0 0 0 0 0 0 0 0 0 0 0 0 0 0 0 0 0 0 0 4 1 7 8 1 1 1 3 2 0 2 0 0 1 3 1 1 0
9 5 0 0 0 0 0 0 0 0 0 0 0 0 0 0 0 0 0 0 0 0 0 0 0 0 3 9 2 2 3 3 0 2 2 2 0 0 0 2 2 2 0 0
4 0 0 0 0 0 0 0 0 0 0 0 0 0 0 0 0 0 0 0 0 0 0 0 0 4 4 9 4 3 1 3 2 1 0 1 1 1 2 2 2 1 0 0
0 0 0 0 0 0 0 0 0 0 0 0 0 0 0 0 0 0 0 0 0 0 0 0 1 1 2 4 3 4 2 3 1 1 0 1 1 1 2 1 0 0 0 0
0 0 0 0 0 0 0 0 0 0 0 0 0 0 0 0 0 0 0 0 0 0 0 0 1 4 2 3 2 2 2 0 3 2 0 1 2 1 1 0 0 0 0 0
0 0 0 0 0 0 0 0 0 0 0 0 1 0 0 0 0 0 0 0 0 0 0 0 0 0 3 3 2 2 2 1 3 2 2 0 0 1 0 0 0 0 0 0
0 0 0 0 0 0 0 0 0 0 0 0 8 17 5 0 0 0 0 0 0 0 0 0 0 3 11 2 1 1 1 2 0 0 1 3 0 0 0 0 0 0 0 0
0 0 0 0 0 0 0 0 0 0 0 0 0 4 15 2 4 5 0 2 0 0 0 0 1 3 5 2 2 2 1 1 1 2 1 0 0 0 0 0 0 0 0 0
0 0 0 0 0 0 0 0 0 0 0 0 0 2 7 6 2 5 1 0 1 0 1 0 1 3 2 1 1 1 1 0 0 0 0 0 0 0 0 0 0 0 0 0
0 0 0 0 1 0 0 0 0 0 0 0 0 0 2 4 9 4 3 0 1 7 5 0 1 9 0 1 2 1 4 0 0 0 0 0 0 0 0 0 0 0 0 0
0 0 0 1 0 0 0 0 0 0 0 0 0 2 0 0 6 0 0 1 0 4 5 6 6 3 0 0 3 7 0 0 0 0 0 0 0 0 0 0 0 0 0 0
0 0 0 0 0 0 0 0 0 0 0 0 7 8 1 0 0 1 0 1 0 2 1 5 2 0 0 0 0 0 0 0 0 0 0 0 0 0 0 0 0 0 0 0
0 0 0 0 0 0 0 0 0 0 1 0 1 0 4 0 2 0 0 1 1 2 2 2 0 0 0 0 0 0 0 0 0 0 0 0 0 0 0 0 0 0 0 0
0 0 0 0 0 0 0 0 0 0 3 2 0 0 3 0 2 0 2 0 2 3 0 0 0 0 2 0 0 0 0 0 0 0 0 0 0 0 0 0 0 0 0 0
0 0 0 0 1 2 1 1 3 2 2 0 0 0 1 0 0 0 0 0 0 0 0 0 0 2 3 2 0 0 0 0 0 0 0 0 0 0 0 0 0 0 0 0
0 0 1 1 3 1 1 2 0 0 0 0 0 0 0 0 0 0 0 0 0 0 0 0 2 3 3 0 0 0 0 0 0 0 0 0 0 0 0 0 0 0 0 0
0 1 1 1 1 0 1 0 1 0 0 0 0 0 0 0 0 0 0 0 0 0 0 2 2 1 0 0 0 0 0 0 0 0 0 0 0 0 0 0 0 0 0 0
CIN
0 0 0 -1 -2 0 0 0 0 0 0 0 0 0 0 0 0 0 0 0 0 0 0 0 0 0 0 0 0 0 -2 0 0 0 -1 0 0 -3 -2 -1 -1 -2 -2 0
0 0 0 0 -1 0 0 0 0 0 0 0 0 0 0 0 0 0 0 0 0 0 0 0 0 0 0 0 0 0 0 -1 0 -2 -3 0 0 0 0 0 0 0 0 0
0 0 0 0 0 0 0 0 0 0 0 0 0 -1 0 0 0 0 0 0 0 0 0 0 0 0 0 0 0 0 -1 -1 0 -1 -1 0 0 0 0 0 0 0 0 0
0 0 0 0 0 -1 0 0 0 0 0 0 -1 -1 0 0 0 0 0 0 0 0 0 0 0 0 0 0 0 0 -1 0 0 0 0 0 0 0 0 0 0 0 0 0
0 0 0 0 0 -2 -3 0 0 0 0 -1 0 0 0 0 0 0 0 0 0 0 0 0 0 0 0 0 0 0 -1 0 -1 0 0 0 0 0 -1 0 0 0 0 0
0 0 0 0 0 -1 -2 0 0 0 0 0 -1 -1 0 0 0 0 0 0 0 0 0 0 0 0 0 0 0 0 0 0 0 -1 -1 0 0 0 0 0 0 -1 0 0
-2 0 0 0 0 -1 0 0 0 0 0 0 -1 0 0 0 0 0 0 0 0 0 0 0 0 0 0 0 0 0 0 0 0 -1 0 0 0 0 0 0 0 -1 -1 0
0 0 0 -1 -2 0 0 0 0 0 0 0 0 0 0 0 0 0 0 0 0 0 0 0 0 0 0 -2 0 0 0 0 -1 0 0 0 0 0 0 0 0 0 0 0
0 0 0 0 0 0 0 0 0 0 0 -1 0 0 0 0 0 0 0 0 0 0 0 0 0 0 0 -1 0 -1 -1 -2 0 -5 -1 0 0 0 0 0 0 0 0 0
0 0 -1 -4 0 0 0 0 0 0 0 0 0 0 0 0 0 0 0 0 0 0 0 0 0 -1 -1 -1 -2 -1 0 -1 -2 -2 0 0 0 0 0 0 0 0 0 0
0 0 -7 0 0 0 0 0 0 0 0 0 0 0 0 0 0 0 0 0 0 0 0 0 0 -1 -1 0 0 -1 -1 -1 -2 0 0 0 0 0 0 0 0 0 0 0
-1 -5 0 0 0 0 0 0 0 0 0 0 0 0 0 0 0 0 0 0 0 0 0 0 0 0 0 0 -1 -1 -1 0 0 0 0 0 0 0 0 -1 0 0 0 -1
-2 -4 0 0 0 0 0 0 0 0 0 0 0 0 0 0 0 0 0 0 0 0 0 0 -1 0 -1 -1 -5 0 0 0 0 0 0 0 0 0 0 -1 0 0 -1 -1
0 0 0 0 0 0 0 0 0 0 0 0 0 0 0 0 0 0 0 0 0 0 0 0 -1 0 0 0 0 0 0 -1 -1 0 0 0 0 0 0 0 0 0 0 0
0 0 0 0 0 0 0 0 0 0 0 0 0 0 0 0 0 0 0 0 0 0 0 0 -1 0 0 0 -1 0 0 -1 0 0 0 0 0 0 0 0 0 0 0 0
0 0 0 0 0 0 0 0 0 0 0 0 -2 0 0 0 0 0 0 0 0 0 0 0 0 0 0 0 0 0 0 0 0 0 0 0 0 0 0 0 0 0 0 0
0 0 0 0 0 0 0 0 0 0 0 0 -1 0 -6 -6 0 0 0 0 0 0 0 0 0 0 0 -1 0 -3 0 0 0 0 0 0 0 0 0 0 0 0 0 0
0 0 0 0 0 0 0 0 0 0 0 0 -1 0 0 -14 -1 0 0 0 0 0 0 0 0 0 0 0 0 0 0 0 0 -1 0 0 0 0 0 0 0 0 0 0
0 0 0 0 0 0 0 0 0 0 0 0 0 0 0 -5 -3 0 -1 0 -1 0 0 0 0 -1 0 -1 0 -1 0 0 0 0 0 0 0 0 0 0 0 0 0 0
0 0 0 0 0 0 0 0 0 0 0 0 0 0 0 -1 0 0 0 0 -1 0 -1 0 -1 0 0 0 -1 -1 -1 0 0 0 0 0 0 0 0 0 0 0 0 0
0 0 0 0 0 0 0 0 0 0 0 0 0 0 0 0 0 0 0 0 0 0 0 0 0 0 0 0 -1 0 0 0 0 0 0 0 0 0 0 0 0 0 0 0
0 0 0 0 0 0 0 0 0 0 0 0 0 0 0 0 0 0 0 0 0 0 0 0 0 0 0 0 0 0 0 0 0 0 0 0 0 0 0 0 0 0 0 0
0 0 0 0 0 0 0 0 0 0 0 0 0 0 0 0 -4 0 -1 0 0 0 0 0 0 0 0 0 0 0 0 0 0 0 0 0 0 0 0 0 0 0 0 0
0 0 0 0 0 0 0 0 0 0 0 0 0 0 0 0 0 0 0 0 -1 0 0 0 0 0 0 0 0 0 0 0 0 0 0 0 0 0 0 0 0 0 0 0
0 0 0 0 0 0 0 0 0 0 0 0 0 0 0 0 0 0 0 0 0 0 0 0 0 0 0 0 0 0 0 0 0 0 0 0 0 0 0 0 0 0 0 0
0 0 -2 0 0 0 0 0 0 0 0 0 0 0 0 0 0 0 0 0 0 0 0 0 0 0 0 0 0 0 0 0 0 0 0 0 0 0 0 0 0 0 0 0
0 0 0 0 0 0 0 0 0 0 0 0 0 0 0 0 0 0 0 0 0 0 0 0 0 0 0 0 0 0 0 0 0 0 0 0 0 0 0 0 0 0 0 0
Wind_Speed
42 37 35 32 29 28 25 25 31 19 17 25 32 36 34 29 22 24 25 23 22 20 15 13 12 10 13 14 17 18 16 17 21 17 14 19 27 26 29 7 22 26 27 18
45 43 40 37 31 37 29 29 26 23 24 32 38 33 34 30 25 27 24 21 21 18 14 15 9 10 13 13 17 16 16 16 23 17 12 18 25 27 31 25 19 28 25 14
56 51 46 42 38 41 30 28 28 29 34 30 32 33 31 32 26 24 23 21 19 15 15 13 9 11 13 12 14 12 16 13 14 18 16 21 27 30 28 5 11 16 16 14
84 62 58 53 48 47 35 34 35 30 32 30 31 31 30 27 26 24 21 22 19 14 15 12 12 12 13 13 12 11 13 15 10 9 9 21 26 26 22 19 15 16 11 13
60 52 59 59 58 53 44 38 34 30 25 29 33 28 28 26 23 20 21 23 14 11 15 13 10 11 12 12 10 14 12 15 12 9 2 13 22 20 17 16 13 12 11 14
29 33 53 59 65 55 44 36 29 26 24 30 31 26 29 22 16 22 19 14 13 14 13 16 17 15 13 12 12 12 12 14 13 15 9 8 17 16 13 13 14 13 13 10
33 44 55 66 62 48 38 33 28 29 34 33 27 20 18 19 15 20 13 8 12 13 15 17 19 19 16 11 7 4 11 12 12 12 9 8 13 10 10 11 13 14 12 14
36 46 52 51 47 41 32 31 27 31 35 26 23 20 18 14 12 14 9 10 13 13 14 15 14 13 12 12 10 6 4 11 12 11 10 8 11 14 17 16 15 15 14 10
41 41 40 39 35 31 28 27 22 24 24 29 16 15 15 17 16 13 15 12 14 16 16 15 15 14 11 11 10 8 7 7 11 12 12 9 14 18 18 17 15 14 14 13
34 31 31 30 28 26 23 25 24 20 19 21 15 17 14 10 12 13 12 12 14 17 15 14 13 13 12 11 11 11 10 10 11 12 12 10 21 21 17 21 15 11 12 13
26 25 26 25 23 25 24 19 16 16 14 14 11 11 14 13 11 13 11 11 16 15 13 13 13 12 12 12 13 13 13 14 13 12 12 12 22 18 21 11 7 8 10 11
21 21 19 18 15 15 11 16 12 8 8 9 6 6 8 12 12 11 13 15 12 12 12 12 12 12 11 10 14 12 14 14 14 12 13 17 16 11 7 6 6 8 9 10
18 19 16 12 10 9 10 12 12 13 13 8 7 6 5 7 11 14 13 15 12 11 11 9 11 12 11 11 13 12 12 11 12 9 12 12 9 7 6 6 6 8 9 10
18 15 13 11 10 10 11 10 10 9 8 10 9 9 8 11 8 8 9 3 6 6 8 11 11 12 12 13 13 11 11 10 10 13 11 9 9 7 6 6 7 8 9 11
15 13 11 12 14 14 10 6 6 10 10 12 9 4 8 7 4 2 3 4 5 7 10 11 12 12 13 13 13 12 10 9 10 14 10 12 7 5 5 6 7 8 9 11
14 14 13 12 13 12 10 9 4 5 8 8 6 11 10 8 4 4 6 7 9 10 11 12 13 13 13 12 12 13 11 11 14 13 10 6 3 5 6 6 8 10 10 11
14 13 11 9 7 8 10 11 12 13 10 9 10 12 12 10 8 8 8 10 10 11 12 13 13 12 12 12 11 11 12 9 6 5 7 5 4 7 6 7 8 10 11 12
14 12 11 9 8 7 7 7 11 10 7 9 13 11 10 13 7 8 11 10 11 13 12 12 12 11 12 11 10 12 14 8 4 9 12 6 7 6 7 8 9 11 12 12
10 9 10 11 9 11 14 12 9 6 9 12 12 7 9 8 7 8 9 11 11 12 12 12 11 10 10 9 10 12 13 6 8 8 6 6 7 7 8 10 11 11 11 12
12 11 9 9 13 15 15 14 15 12 11 10 10 10 4 2 5 8 10 12 11 12 12 12 11 10 11 8 11 12 12 14 7 6 7 6 7 7 8 10 11 11 12 13
13 13 11 15 15 14 13 14 14 15 12 10 8 2 4 6 6 8 12 12 12 12 12 11 11 11 7 6 9 10 8 9 6 12 9 9 7 7 9 10 11 12 13 14
12 10 14 15 13 12 10 12 13 13 12 9 3 0 3 6 9 11 12 13 13 13 12 12 12 11 8 8 9 9 4 6 7 10 9 8 7 7 8 9 10 11 13 14
14 12 11 13 12 11 12 11 12 11 10 7 4 1 5 7 11 12 13 13 14 14 12 12 12 9 10 11 10 7 5 6 7 8 7 7 7 7 8 9 10 11 13 15
10 11 11 13 13 12 13 12 10 10 5 6 2 3 8 9 12 13 14 14 13 13 12 12 11 11 13 13 9 7 6 6 6 6 7 6 6 6 8 10 11 13 14 15
9 10 12 11 10 10 11 10 8 7 5 2 2 7 9 10 12 13 13 12 12 11 11 11 10 12 14 13 10 8 7 6 6 6 5 5 6 8 9 11 12 13 14 15
10 10 8 10 6 6 8 6 4 9 7 6 8 9 10 12 12 12 12 12 13 12 10 10 10 11 10 10 9 8 7 6 6 5 4 6 7 8 10 11 12 13 13 15
11 10 9 9 8 7 8 8 8 11 8 7 9 11 12 12 12 12 11 12 13 12 10 9 7 7 10 10 9 8 7 6 4 5 6 7 8 9 10 11 11 12 14 16
Wind_Direction
267 256 255 249 249 210 226 243 248 234 218 236 248 251 253 254 256 264 266 266 272 270 275 288 290 305 322 337 345 354 8 5 353 0 15 347 316 314 290 204 316 296 287 2
260 254 247 239 235 203 230 238 250 230 231 248 245 255 247 250 253 257 260 266 267 273 273 285 294 301 313 340 347 2 12 12 356 14 37 349 326 287 284 250 319 289 250 20
260 250 239 229 220 202 219 234 238 235 242 253 242 240 240 244 255 259 262 260 264 264 273 287 282 297 313 341 352 12 16 22 12 4 10 346 303 311 299 344 5 317 328 24
256 244 229 220 207 197 216 231 238 232 225 225 234 236 238 238 249 258 254 258 262 258 271 276 285 296 313 339 6 23 20 11 30 30 55 338 326 324 322 340 310 312 10 24
226 222 212 208 195 190 215 225 232 224 234 227 231 229 236 233 249 245 245 256 250 253 272 279 276 293 314 337 7 4 27 18 27 13 88 345 324 328 330 357 0 19 21 4
237 203 187 187 182 184 207 225 224 214 222 219 228 219 229 225 238 254 250 253 250 254 268 276 281 297 319 336 350 7 18 19 19 13 55 43 316 328 317 354 346 341 291 271
159 160 160 164 169 187 208 211 204 223 222 217 221 207 221 224 236 245 251 230 252 265 268 277 285 296 310 332 349 18 13 14 16 6 31 359 325 327 331 351 330 334 342 44
135 141 147 160 178 197 198 204 211 224 218 215 222 221 231 223 236 239 232 255 262 256 271 279 291 309 325 334 353 11 33 5 2 357 360 15 316 288 278 294 302 313 329 7
129 139 153 167 179 188 196 207 221 215 206 222 211 204 193 216 236 239 247 255 254 258 267 277 289 305 329 342 355 11 10 358 352 350 335 323 299 280 274 281 294 315 315 326
128 141 155 161 171 180 190 203 213 205 222 220 204 218 197 229 229 236 236 245 256 257 269 280 301 316 331 341 343 350 350 343 329 329 325 326 279 269 269 266 284 336 326 336
136 141 147 163 167 187 196 201 211 213 214 211 223 227 223 220 222 225 231 245 256 261 275 294 313 327 336 345 349 347 343 340 335 332 319 304 283 267 264 294 338 352 354 354
143 151 153 161 160 158 172 199 212 215 192 198 198 209 241 244 240 231 233 258 254 275 291 310 329 340 353 352 342 0 344 349 343 336 325 297 295 281 301 330 344 358 357 356
159 159 155 160 166 178 165 149 130 127 131 140 196 217 253 242 240 239 247 258 272 288 314 342 347 351 4 358 356 8 14 24 5 357 317 295 301 299 303 320 346 352 352 358
147 144 145 151 141 140 144 161 205 185 183 185 210 237 239 243 250 260 268 284 311 353 355 355 3 5 14 8 12 14 22 29 13 325 288 303 296 299 307 322 348 352 341 345
156 155 145 131 125 124 116 131 192 205 214 199 190 191 240 245 266 314 337 357 7 1 358 6 9 25 29 33 32 24 36 22 336 310 280 291 281 311 332 324 330 340 346 349
145 146 147 159 173 185 171 185 218 190 127 165 209 225 232 243 273 325 332 335 340 356 8 19 28 41 39 32 21 34 33 336 289 285 285 320 335 334 355 352 2 359 347 339
129 131 138 143 152 179 209 215 201 206 210 210 214 225 238 246 266 289 320 333 348 4 24 26 42 50 47 39 28 63 55 5 317 3 32 349 1 301 342 353 351 344 340 343
123 120 119 130 135 171 185 197 209 218 218 236 228 234 237 248 283 311 308 348 4 4 23 42 45 51 38 29 48 77 82 47 320 286 287 1 34 18 340 336 334 334 335 345
147 153 169 181 203 208 198 212 219 240 247 237 242 214 246 260 297 323 344 354 8 24 26 32 45 34 25 33 91 101 102 40 286 292 342 23 23 7 332 320 322 333 342 354
187 196 209 218 208 208 213 214 224 243 259 261 242 246 260 291 334 342 11 8 19 16 25 46 30 25 357 39 91 98 96 94 66 301 318 337 351 4 341 333 13 25 20 21
213 221 222 197 211 211 226 229 235 236 245 256 247 273 106 284 350 10 359 16 23 19 27 29 25 29 24 60 78 85 76 82 315 291 321 322 3 24 31 37 38 35 32 28
218 189 199 210 229 239 248 239 239 246 245 245 211 123 313 326 335 6 17 17 28 22 47 32 26 34 52 86 83 77 28 35 347 309 320 341 2 6 19 26 23 22 24 20
197 206 228 234 249 249 245 239 244 245 237 227 190 295 315 347 358 12 17 19 24 49 35 34 42 32 79 94 88 62 0 358 355 357 2 13 10 8 20 24 12 25 24 24
225 233 229 240 248 251 244 240 240 240 208 135 109 332 333 355 6 17 17 30 42 33 30 42 42 78 94 95 82 62 17 355 3 4 7 18 21 11 7 24 38 36 28 24
238 247 239 254 244 235 231 232 234 216 174 190 4 341 350 0 13 21 29 31 28 37 48 38 27 88 99 97 86 66 46 24 358 6 10 14 25 34 33 29 28 22 21 19
246 255 242 224 224 237 234 229 182 212 226 265 305 338 348 360 20 20 25 35 29 44 27 357 55 85 87 82 67 55 42 32 13 339 16 36 40 41 35 29 20 19 18 13
239 235 231 224 230 239 239 222 216 226 255 298 326 341 351 21 12 19 42 32 42 1 348 6 19 67 84 73 58 52 44 25 22 40 43 38 23 20 19 13 18 14 9 5